Погода в Бугульчане

Россия / Республика Башкортостан     52°50′07″N   55°57′48″E
темп.,
°C
ветер,
м/с
пор.,
м/с
влажн.,
%
обл.,
%
осадки,
мм/ч
давл.,
гПа
погр.,
м
6 марта, сб
сб623:00−6ссз2297100 1.2 100936
02:00−11зсз119535 0.0 101121
05:00−12юз119858 0.0 101421
08:00−14з119636 0.0 101421
11:00−9зюз128926 0.0 1015152
14:00−6юз34870 0.0 1015345
17:00−7юз249247 0.0 1015246
20:00−11ююз2393100 0.0 101522
7 марта, вс
вс723:00−10ююв1191100 0.0 101421
02:00−10св1194100 0.0 101121
05:00−10ссв3496100 0.7 1010153
08:00−10с4796100 0.9 1008273
11:00−10с5994100 1.7 1008427
14:00−9ссз61088100 0.1 1009557
17:00−10ссз488450 0.1 1011529
20:00−15з22920 0.0 101321
8 марта, пн
пн823:00−17ююз33910 0.0 101521
02:00−16ююз4109367 0.0 1014213
05:00−15ю5129783 0.1 1012320
08:00−12ю91794100 0.5 1010605
11:00−8ююз111793100 1.6 1009890
14:00−5юз111693100 1.7 10071011
17:00−4юз101694100 2.9 10061154
20:00−4юз91595100 1.1 1007978
9 марта, вт
вт923:00−4юз91594100 2.0 1007927
02:00−3юз91595100 1.1 1005902
05:00−3юз91595100 2.5 10051030
08:00−10зюз5129367 0.9 1008309
11:00−10зюз479573 0.9 1012276
14:00−9юз469390 0.0 1013403
17:00−9юз479286 0.0 1014425
20:00−14ююз239889 0.0 101420
10 марта, ср
ср1023:00−16ююз129993 0.1 101620
02:00−16вюв0198100 0.0 101520
05:00−18св11100100 0.1 101520
08:00−17св129794 0.0 101420
11:00−13ссв239397 0.0 1012200
14:00−12с4694100 0.4 1011340
17:00−13с61095100 1.1 1009368
20:00−16с71395100 0.3 1011397